TimeAKST,TemperatureF,Dew PointF,Humidity,Sea Level PressureIn,VisibilityMPH,Wind Direction,Wind SpeedMPH,Gust SpeedMPH,PrecipitationIn,Events,Conditions,WindDirDegrees,DateUTC
12:53 AM,41.0,32.0,70,29.20,10.0,NNE,5.8,-,N/A,,Overcast,30,2013-02-03 09:53:00
1:53 AM,39.9,30.9,70,29.20,10.0,East,8.1,-,N/A,,Overcast,80,2013-02-03 10:53:00
2:53 AM,39.9,30.9,70,29.18,10.0,ENE,8.1,-,N/A,,Overcast,70,2013-02-03 11:53:00
3:53 AM,41.0,30.9,67,29.17,10.0,NE,11.5,21.9,N/A,,Overcast,40,2013-02-03 12:53:00
4:53 AM,41.0,28.9,62,29.16,10.0,East,10.4,-,N/A,,Overcast,90,2013-02-03 13:53:00
5:53 AM,41.0,28.9,62,29.18,10.0,SE,3.5,-,N/A,,Overcast,140,2013-02-03 14:53:00
6:53 AM,41.0,30.0,65,29.19,10.0,South,4.6,-,N/A,,Overcast,170,2013-02-03 15:53:00
7:53 AM,39.0,30.9,73,29.21,10.0,Calm,Calm,-,N/A,,Overcast,0,2013-02-03 16:53:00
8:53 AM,39.9,30.0,68,29.22,10.0,Calm,Calm,-,N/A,,Overcast,0,2013-02-03 17:53:00
9:53 AM,39.0,28.9,67,29.24,10.0,Calm,Calm,-,N/A,,Overcast,0,2013-02-03 18:53:00
10:53 AM,42.1,28.9,60,29.26,10.0,Calm,Calm,-,N/A,,Overcast,0,2013-02-03 19:53:00
11:53 AM,39.9,30.0,68,29.28,10.0,SW,3.5,-,N/A,,Overcast,220,2013-02-03 20:53:00
12:53 PM,41.0,30.0,65,29.29,10.0,Calm,Calm,-,N/A,,Overcast,0,2013-02-03 21:53:00
1:53 PM,43.0,30.0,60,29.30,10.0,Calm,Calm,-,N/A,,Scattered Clouds,0,2013-02-03 22:53:00
2:53 PM,42.1,30.0,62,29.31,10.0,South,5.8,-,N/A,,Scattered Clouds,190,2013-02-03 23:53:00
3:53 PM,41.0,30.0,65,29.32,10.0,SSW,6.9,-,N/A,,Scattered Clouds,200,2013-02-04 00:53:00
4:53 PM,39.9,30.9,70,29.34,10.0,Variable,3.5,-,N/A,,Scattered Clouds,0,2013-02-04 01:53:00
5:53 PM,37.0,30.0,76,29.35,10.0,Calm,Calm,-,N/A,,Scattered Clouds,0,2013-02-04 02:53:00
6:53 PM,37.0,28.9,73,29.37,10.0,Calm,Calm,-,N/A,,Scattered Clouds,0,2013-02-04 03:53:00
7:53 PM,33.1,28.0,82,29.39,10.0,Calm,Calm,-,N/A,,Scattered Clouds,0,2013-02-04 04:53:00
8:53 PM,33.1,27.0,78,29.41,10.0,Calm,Calm,-,N/A,,Partly Cloudy,0,2013-02-04 05:53:00
9:53 PM,32.0,27.0,82,29.43,10.0,Calm,Calm,-,N/A,,Clear,0,2013-02-04 06:53:00
10:53 PM,32.0,27.0,82,29.44,10.0,Calm,Calm,-,N/A,,Mostly Cloudy,0,2013-02-04 07:53:00
11:53 PM,32.0,28.0,85,29.45,10.0,Calm,Calm,-,N/A,,Scattered Clouds,0,2013-02-04 08:53:00